Flag for Canada Weather past 2 weeks in Drummondville, Quebec, Canada

Now
46 °F

Cool.


Feels Like: 41 °F
Forecast: 32 / 49 °F
Wind: 10 mph from Southwest

Location: Nicolet

Current Time: Apr 25, 2015 at 3:17:43 PM

Latest Report: Apr 25, 2015 at 2:00 PM


Visibility: N/A

Pressure: 29.72 "Hg

Humidity: 65%

Dew point: 35 °F

Location of DrummondvilleLocation

Historic Weather in Drummondville — Graph

°F

Drummondville temperature yesterday

Maximum temperature yesterday: 40 °F (at 12:00 AM)
Minimum temperature yesterday: 33 °F (at 10:00 AM)
Average temperature yesterday: 36 °F

Past Weeks' High & Low Weather Summary

 TemperatureHumidityPressure
High67 °F (Apr 13, 4:00 PM)100% (Apr 23, 4:00 AM)30.47 "Hg (Apr 23, 4:00 AM)
Low28 °F (Apr 16, 5:00 AM)27% (Apr 15, 11:00 PM)29.39 "Hg (Apr 10, 6:00 PM)
Average43 °F68%29.89 "Hg
* Reported Apr 10 2:00 PM — Apr 25 2:00 PM, Drummondville, Weather by CustomWeather, © 2015

Note: Actual official high and low records may vary slightly from our data, if they occured in-between our weather recording intervals... More about our weather records

Advertising

Drummondville weather history for previous 24 hours

 ConditionsComfort  
Time TempWeatherWind HumidityBarometerVisibility
2:00 PM
Sat, Apr 25
46 °FCool.10 mph65%29.72 "HgN/A
1:00 PM44 °FQuite cool.5 mph66%29.74 "HgN/A
12:00 PM43 °FQuite cool.6 mph63%29.74 "HgN/A
11:00 AM42 °FQuite cool.7 mph67%29.74 "HgN/A
10:00 AM41 °FQuite cool.9 mph67%29.74 "HgN/A
9:00 AM39 °FChilly.8 mph70%29.74 "HgN/A
8:00 AM37 °FChilly.8 mph74%29.74 "HgN/A
7:00 AM37 °FChilly.9 mph74%29.75 "HgN/A
6:00 AM35 °FChilly.9 mph81%29.74 "HgN/A
5:00 AM36 °FChilly.9 mph74%29.74 "HgN/A
4:00 AM36 °FChilly.8 mph73%29.74 "HgN/A
3:00 AM36 °FChilly.10 mph73%29.75 "HgN/A
2:00 AM35 °FChilly.10 mph78%29.75 "HgN/A
1:00 AM35 °FChilly.12 mph76%29.76 "HgN/A
12:00 AM35 °FChilly.9 mph76%29.77 "HgN/A
11:00 PM
Fri, Apr 24
35 °FChilly.10 mph76%29.77 "HgN/A
10:00 PM36 °FChilly.10 mph76%29.78 "HgN/A
9:00 PM36 °FChilly.10 mph75%29.78 "HgN/A
7:00 PM37 °FChilly.13 mph65%29.78 "HgN/A
6:00 PM37 °FChilly.10 mph67%29.77 "HgN/A
5:00 PM38 °FChilly.10 mph62%29.76 "HgN/A
4:00 PM39 °FChilly.13 mph64%29.74 "HgN/A
3:00 PM38 °FChilly.13 mph61%29.72 "HgN/A
Weather by CustomWeather, © 2015

See weather overviewHow to use our weather pages